Year,Month,Day,Hour,Minute,Value (Times are PST for temperature in C)
2017,04,27,08,34,8.30
2017,04,27,08,35,8.30
2017,04,27,08,36,8.30
2017,04,27,08,37,8.30
2017,04,27,08,38,8.40
2017,04,27,08,39,8.40
2017,04,27,08,40,8.40
2017,04,27,08,41,8.40
2017,04,27,08,42,8.30
2017,04,27,08,43,8.30
2017,04,27,08,44,8.30
2017,04,27,08,45,8.40
2017,04,27,08,46,8.40
2017,04,27,08,47,8.50
2017,04,27,08,48,8.50
2017,04,27,08,49,8.60
2017,04,27,08,50,8.70
2017,04,27,08,51,8.70
2017,04,27,08,52,8.80
2017,04,27,08,53,8.90
2017,04,27,08,54,8.90
2017,04,27,08,55,9.00
2017,04,27,08,56,9.00
2017,04,27,08,57,9.10
2017,04,27,08,58,9.20
2017,04,27,08,59,9.20
2017,04,27,09,00,9.30
2017,04,27,09,01,9.30
2017,04,27,09,02,9.30
2017,04,27,09,03,9.40
2017,04,27,09,04,9.40
2017,04,27,09,05,9.40
2017,04,27,09,06,9.40
2017,04,27,09,07,9.50
2017,04,27,09,08,9.50
2017,04,27,09,09,9.40
2017,04,27,09,10,9.40
2017,04,27,09,11,9.40
2017,04,27,09,12,9.40
2017,04,27,09,13,9.40
2017,04,27,09,14,9.40
2017,04,27,09,15,9.30
2017,04,27,09,16,9.30
2017,04,27,09,17,9.30
2017,04,27,09,18,9.30
2017,04,27,09,19,9.30
2017,04,27,09,20,9.30
2017,04,27,09,21,9.30
2017,04,27,09,22,9.30
2017,04,27,09,23,9.40
2017,04,27,09,24,9.40
2017,04,27,09,25,9.40
2017,04,27,09,26,9.40
2017,04,27,09,27,9.50
2017,04,27,09,28,9.50
2017,04,27,09,29,9.60
2017,04,27,09,30,9.60
2017,04,27,09,31,9.60
2017,04,27,09,32,9.70
2017,04,27,09,33,9.70
2017,04,27,09,34,9.70
2017,04,27,09,35,9.70
2017,04,27,09,36,9.70
2017,04,27,09,37,9.70
2017,04,27,09,38,9.70
2017,04,27,09,39,9.70
2017,04,27,09,40,9.80
2017,04,27,09,41,9.80
2017,04,27,09,42,9.80
2017,04,27,09,43,9.80
2017,04,27,09,44,9.80
2017,04,27,09,45,9.80
2017,04,27,09,46,9.80
2017,04,27,09,47,9.80
2017,04,27,09,48,9.80
2017,04,27,09,49,9.80
2017,04,27,09,50,9.80
2017,04,27,09,51,9.80
2017,04,27,09,52,9.80
2017,04,27,09,53,9.80
2017,04,27,09,54,9.90
2017,04,27,09,55,9.90
2017,04,27,09,56,9.90
2017,04,27,09,57,9.90
2017,04,27,09,58,9.90
2017,04,27,09,59,9.90
2017,04,27,10,00,10.00
2017,04,27,10,01,10.10
2017,04,27,10,02,10.10
2017,04,27,10,03,10.20
2017,04,27,10,04,10.20
2017,04,27,10,05,10.30
2017,04,27,10,06,10.30
2017,04,27,10,07,10.30
2017,04,27,10,08,10.30
2017,04,27,10,09,10.30
2017,04,27,10,10,10.30
2017,04,27,10,11,10.30
2017,04,27,10,12,10.30
2017,04,27,10,13,10.30
2017,04,27,10,14,10.30
2017,04,27,10,15,10.30
2017,04,27,10,16,10.30
2017,04,27,10,17,10.30
2017,04,27,10,18,10.30
2017,04,27,10,19,10.30
2017,04,27,10,20,10.40
2017,04,27,10,21,10.40
2017,04,27,10,22,10.40
2017,04,27,10,23,10.40
2017,04,27,10,24,10.40
2017,04,27,10,25,10.40
2017,04,27,10,26,10.40
2017,04,27,10,27,10.40
2017,04,27,10,28,10.50
2017,04,27,10,29,10.60
2017,04,27,10,30,10.60
2017,04,27,10,31,10.60
2017,04,27,10,32,10.60
2017,04,27,10,33,10.60
2017,04,27,10,34,10.60
2017,04,27,10,35,10.50
2017,04,27,10,36,10.50
2017,04,27,10,37,10.40
2017,04,27,10,38,10.30
2017,04,27,10,39,10.30
2017,04,27,10,40,10.30
2017,04,27,10,41,10.40
2017,04,27,10,42,10.40
2017,04,27,10,43,10.40
2017,04,27,10,44,10.40
2017,04,27,10,45,10.50
2017,04,27,10,46,10.50
2017,04,27,10,47,10.40
2017,04,27,10,48,10.40
2017,04,27,10,49,10.40
2017,04,27,10,50,10.50
2017,04,27,10,51,10.60
2017,04,27,10,52,10.60
2017,04,27,10,53,10.70
2017,04,27,10,54,10.80
2017,04,27,10,55,10.90
2017,04,27,10,56,10.90
2017,04,27,10,57,11.00
2017,04,27,10,58,11.00
2017,04,27,10,59,11.00
2017,04,27,11,00,11.00
2017,04,27,11,01,11.00
2017,04,27,11,02,11.10
2017,04,27,11,03,11.10
2017,04,27,11,04,11.20
2017,04,27,11,05,11.20
2017,04,27,11,06,11.20
2017,04,27,11,07,11.20
2017,04,27,11,08,11.20
2017,04,27,11,09,11.30
2017,04,27,11,10,11.30
2017,04,27,11,11,11.30
2017,04,27,11,12,11.40
2017,04,27,11,13,11.50
2017,04,27,11,14,11.50
2017,04,27,11,15,11.50
2017,04,27,11,16,11.40
2017,04,27,11,17,11.30
2017,04,27,11,18,11.30
2017,04,27,11,19,11.30
2017,04,27,11,20,11.30
2017,04,27,11,21,11.40
2017,04,27,11,22,11.40
2017,04,27,11,23,11.40
2017,04,27,11,24,11.40
2017,04,27,11,25,11.40
2017,04,27,11,26,11.40
2017,04,27,11,27,11.40
2017,04,27,11,28,11.40
2017,04,27,11,29,11.30
2017,04,27,11,30,11.40
2017,04,27,11,31,11.40
2017,04,27,11,32,11.50
2017,04,27,11,33,11.50
2017,04,27,11,34,11.60
2017,04,27,11,35,11.60
2017,04,27,11,36,11.70
2017,04,27,11,37,11.70
2017,04,27,11,38,11.70
2017,04,27,11,39,11.70
2017,04,27,11,40,11.70
2017,04,27,11,41,11.60
2017,04,27,11,42,11.60
2017,04,27,11,43,11.60
2017,04,27,11,44,11.50
2017,04,27,11,45,11.50
2017,04,27,11,46,11.50
2017,04,27,11,47,11.50
2017,04,27,11,48,11.50
2017,04,27,11,49,11.50
2017,04,27,11,50,11.50
2017,04,27,11,51,11.60
2017,04,27,11,52,11.70
2017,04,27,11,53,11.80
2017,04,27,11,54,11.90
2017,04,27,11,55,12.10
2017,04,27,11,56,12.20
2017,04,27,11,57,12.30
2017,04,27,11,58,12.50
2017,04,27,11,59,12.50
2017,04,27,12,00,12.50
2017,04,27,12,01,12.40
2017,04,27,12,02,12.30
2017,04,27,12,03,12.20
2017,04,27,12,04,12.10
2017,04,27,12,05,12.10
2017,04,27,12,06,12.00
2017,04,27,12,07,11.90
2017,04,27,12,08,11.90
2017,04,27,12,09,11.90
2017,04,27,12,10,11.90
2017,04,27,12,11,11.90
2017,04,27,12,12,11.90
2017,04,27,12,13,12.00
2017,04,27,12,14,12.00
2017,04,27,12,15,12.00
2017,04,27,12,16,12.10
2017,04,27,12,17,12.10
2017,04,27,12,18,12.20
2017,04,27,12,19,12.20
2017,04,27,12,20,12.30
2017,04,27,12,21,12.30
2017,04,27,12,22,12.40
2017,04,27,12,23,12.40
2017,04,27,12,24,12.40
2017,04,27,12,25,12.40
2017,04,27,12,26,12.50
2017,04,27,12,27,12.50
2017,04,27,12,28,12.40
2017,04,27,12,29,12.30
2017,04,27,12,30,12.30
2017,04,27,12,31,12.30
2017,04,27,12,32,12.40
2017,04,27,12,33,12.50
2017,04,27,12,34,12.60
2017,04,27,12,35,12.70
2017,04,27,12,36,12.60
2017,04,27,12,37,12.60
2017,04,27,12,38,12.60
2017,04,27,12,39,12.70
2017,04,27,12,40,12.70
2017,04,27,12,41,12.70
2017,04,27,12,42,12.70
2017,04,27,12,43,12.70
2017,04,27,12,44,12.70
2017,04,27,12,45,12.60
2017,04,27,12,46,12.50
2017,04,27,12,47,12.40
2017,04,27,12,48,12.30
2017,04,27,12,49,12.30
2017,04,27,12,50,12.40
2017,04,27,12,51,12.50
2017,04,27,12,52,12.50
2017,04,27,12,53,12.60
2017,04,27,12,54,12.60
2017,04,27,12,55,12.70
2017,04,27,12,56,12.80
2017,04,27,12,57,12.90
2017,04,27,12,58,13.00
2017,04,27,12,59,13.00
2017,04,27,13,00,13.10
2017,04,27,13,01,13.10
2017,04,27,13,02,13.10
2017,04,27,13,03,13.10
2017,04,27,13,04,13.10
2017,04,27,13,05,13.20
2017,04,27,13,06,13.10
2017,04,27,13,07,13.00
2017,04,27,13,08,13.00
2017,04,27,13,09,13.00
2017,04,27,13,10,13.00
2017,04,27,13,11,13.00
2017,04,27,13,12,13.10
2017,04,27,13,13,13.10
2017,04,27,13,14,13.20
2017,04,27,13,15,13.30
2017,04,27,13,16,13.30
2017,04,27,13,17,13.30
2017,04,27,13,18,13.30
2017,04,27,13,19,13.30
2017,04,27,13,20,13.30
2017,04,27,13,21,13.30
2017,04,27,13,22,13.40
2017,04,27,13,23,13.40
2017,04,27,13,24,13.40
2017,04,27,13,25,13.30
2017,04,27,13,26,13.30
2017,04,27,13,27,13.30
2017,04,27,13,28,13.20
2017,04,27,13,29,13.20
2017,04,27,13,30,13.20
2017,04,27,13,31,13.20
2017,04,27,13,32,13.20
2017,04,27,13,33,13.10
2017,04,27,13,34,13.20
2017,04,27,13,35,13.20
2017,04,27,13,36,13.30
2017,04,27,13,37,13.30
2017,04,27,13,38,13.20
2017,04,27,13,39,13.20
2017,04,27,13,40,13.20
2017,04,27,13,41,13.20
2017,04,27,13,42,13.20
2017,04,27,13,43,13.30
2017,04,27,13,44,13.40
2017,04,27,13,45,13.50
2017,04,27,13,46,13.60
2017,04,27,13,47,13.60
2017,04,27,13,48,13.60
2017,04,27,13,49,13.60
2017,04,27,13,50,13.70
2017,04,27,13,51,13.70
2017,04,27,13,52,13.90
2017,04,27,13,53,13.90
2017,04,27,13,54,14.00
2017,04,27,13,55,14.00
2017,04,27,13,56,14.10
2017,04,27,13,57,14.10
2017,04,27,13,58,14.00
2017,04,27,13,59,14.00
2017,04,27,14,00,14.00
2017,04,27,14,01,13.90
2017,04,27,14,02,13.90
2017,04,27,14,03,13.80
2017,04,27,14,04,13.70
2017,04,27,14,05,13.50
2017,04,27,14,06,13.30
2017,04,27,14,07,13.00
2017,04,27,14,08,12.80
2017,04,27,14,09,12.60
2017,04,27,14,10,12.30
2017,04,27,14,11,12.10
2017,04,27,14,12,11.90
2017,04,27,14,13,11.80
2017,04,27,14,14,11.60
2017,04,27,14,15,11.50
2017,04,27,14,16,11.30
2017,04,27,14,17,11.20
2017,04,27,14,18,11.20
2017,04,27,14,19,11.20
2017,04,27,14,20,11.20
2017,04,27,14,21,11.30
2017,04,27,14,22,11.40
2017,04,27,14,23,11.50
2017,04,27,14,24,11.60
2017,04,27,14,25,11.80
2017,04,27,14,26,11.90
2017,04,27,14,27,12.00
2017,04,27,14,28,12.20
2017,04,27,14,29,12.20
2017,04,27,14,30,12.20
2017,04,27,14,31,12.30
2017,04,27,14,32,12.30
2017,04,27,14,33,12.40
2017,04,27,14,34,12.60
2017,04,27,14,35,12.70
2017,04,27,14,36,12.70
2017,04,27,14,37,12.80
2017,04,27,14,38,12.90
2017,04,27,14,39,12.90
2017,04,27,14,40,12.90
2017,04,27,14,41,12.90
2017,04,27,14,42,12.90
2017,04,27,14,43,12.80
2017,04,27,14,44,12.80
2017,04,27,14,45,12.80
2017,04,27,14,46,12.80
2017,04,27,14,47,12.70
2017,04,27,14,48,12.60
2017,04,27,14,49,12.50
2017,04,27,14,50,12.50
2017,04,27,14,51,12.40
2017,04,27,14,52,12.30
2017,04,27,14,53,12.20
2017,04,27,14,54,12.10
2017,04,27,14,55,12.00
2017,04,27,14,56,11.90
2017,04,27,14,57,11.80
2017,04,27,14,58,11.70
2017,04,27,14,59,11.60
2017,04,27,15,00,11.60
2017,04,27,15,01,11.60
2017,04,27,15,02,11.60
2017,04,27,15,03,11.60
2017,04,27,15,04,11.60
2017,04,27,15,05,11.70
2017,04,27,15,06,11.70
2017,04,27,15,07,11.70
2017,04,27,15,08,11.70
2017,04,27,15,09,11.70
2017,04,27,15,10,11.60
2017,04,27,15,11,11.50
2017,04,27,15,12,11.50
2017,04,27,15,13,11.40
2017,04,27,15,14,11.30
2017,04,27,15,15,11.30
2017,04,27,15,16,11.30
2017,04,27,15,17,11.30
2017,04,27,15,18,11.30
2017,04,27,15,19,11.30
2017,04,27,15,20,11.30
2017,04,27,15,21,11.30
2017,04,27,15,22,11.30
2017,04,27,15,23,11.40
2017,04,27,15,24,11.40
2017,04,27,15,25,11.50
2017,04,27,15,26,11.60
2017,04,27,15,27,11.70
2017,04,27,15,28,11.70
2017,04,27,15,29,11.80
2017,04,27,15,30,11.80
2017,04,27,15,31,12.00
2017,04,27,15,32,12.10
2017,04,27,15,33,12.30
2017,04,27,15,34,12.40
2017,04,27,15,35,12.50
2017,04,27,15,36,12.60
2017,04,27,15,37,12.60
2017,04,27,15,38,12.70
2017,04,27,15,39,12.80
2017,04,27,15,40,12.80
2017,04,27,15,41,12.90
2017,04,27,15,42,13.00
2017,04,27,15,43,13.10
2017,04,27,15,44,13.10
2017,04,27,15,45,13.10
2017,04,27,15,46,13.10
2017,04,27,15,47,13.10
2017,04,27,15,48,13.20
2017,04,27,15,49,13.30
2017,04,27,15,50,13.40
2017,04,27,15,51,13.40
2017,04,27,15,52,13.40
2017,04,27,15,53,13.40
2017,04,27,15,54,13.40
2017,04,27,15,55,13.50
2017,04,27,15,56,13.50
2017,04,27,15,57,13.60
2017,04,27,15,58,13.70
2017,04,27,15,59,13.70
2017,04,27,16,00,13.80
2017,04,27,16,01,13.80
2017,04,27,16,02,13.80
2017,04,27,16,03,13.80
2017,04,27,16,04,13.80
2017,04,27,16,05,13.90
2017,04,27,16,06,13.90
2017,04,27,16,07,14.00
2017,04,27,16,08,14.10
2017,04,27,16,09,14.20
2017,04,27,16,10,14.30
2017,04,27,16,11,14.40
2017,04,27,16,12,14.40
2017,04,27,16,13,14.40
2017,04,27,16,14,14.40
2017,04,27,16,15,14.40
2017,04,27,16,16,14.30
2017,04,27,16,17,14.30
2017,04,27,16,18,14.30
2017,04,27,16,19,14.20
2017,04,27,16,20,14.20
2017,04,27,16,21,14.20
2017,04,27,16,22,14.10
2017,04,27,16,23,14.10
2017,04,27,16,24,14.10
2017,04,27,16,25,14.10
2017,04,27,16,26,14.00
2017,04,27,16,27,13.80
2017,04,27,16,28,13.60
2017,04,27,16,29,13.40
2017,04,27,16,30,13.30
2017,04,27,16,31,13.20
2017,04,27,16,32,13.10
2017,04,27,16,33,13.10
2017,04,27,16,34,13.10
2017,04,27,16,35,12.90
2017,04,27,16,36,12.90
2017,04,27,16,37,12.80
2017,04,27,16,38,12.80
2017,04,27,16,39,12.80
2017,04,27,16,40,12.80
2017,04,27,16,41,12.80
2017,04,27,16,42,12.70
2017,04,27,16,43,12.70
2017,04,27,16,44,12.80
2017,04,27,16,45,12.80
2017,04,27,16,46,12.80
2017,04,27,16,47,12.80
2017,04,27,16,48,12.80
2017,04,27,16,49,12.80
2017,04,27,16,50,12.80
2017,04,27,16,51,12.70
2017,04,27,16,52,12.70
2017,04,27,16,53,12.60
2017,04,27,16,54,12.60
2017,04,27,16,55,12.60
2017,04,27,16,56,12.50
2017,04,27,16,57,12.50
2017,04,27,16,58,12.40
2017,04,27,16,59,12.40
2017,04,27,17,00,12.50
2017,04,27,17,01,12.60
2017,04,27,17,02,12.70
2017,04,27,17,03,12.80
2017,04,27,17,04,12.90
2017,04,27,17,05,12.90
2017,04,27,17,06,13.00
2017,04,27,17,07,13.00
2017,04,27,17,08,13.10
2017,04,27,17,09,13.20
2017,04,27,17,10,13.20
2017,04,27,17,11,13.30
2017,04,27,17,12,13.40
2017,04,27,17,13,13.60
2017,04,27,17,14,13.70
2017,04,27,17,15,13.80
2017,04,27,17,16,13.90
2017,04,27,17,17,14.00
2017,04,27,17,18,14.00
2017,04,27,17,19,14.10
2017,04,27,17,20,14.10
2017,04,27,17,21,14.00
2017,04,27,17,22,14.00
2017,04,27,17,23,13.90
2017,04,27,17,24,13.90
2017,04,27,17,25,13.90
2017,04,27,17,26,13.90
2017,04,27,17,27,13.90
2017,04,27,17,28,13.90
2017,04,27,17,29,13.90
2017,04,27,17,30,13.90
2017,04,27,17,31,13.90
2017,04,27,17,32,14.00
2017,04,27,17,33,14.00
2017,04,27,17,34,14.10
2017,04,27,17,35,14.10
2017,04,27,17,36,14.20
2017,04,27,17,37,14.20
2017,04,27,17,38,14.20
2017,04,27,17,39,14.20
2017,04,27,17,40,14.20
2017,04,27,17,41,14.20
2017,04,27,17,42,14.10
2017,04,27,17,43,14.10
2017,04,27,17,44,14.10
2017,04,27,17,45,14.10
2017,04,27,17,46,14.10
2017,04,27,17,47,14.10
2017,04,27,17,48,14.10
2017,04,27,17,49,14.10
2017,04,27,17,50,14.10
2017,04,27,17,51,14.00
2017,04,27,17,52,13.90
2017,04,27,17,53,13.80
2017,04,27,17,54,13.80
2017,04,27,17,55,13.80
2017,04,27,17,56,13.80
2017,04,27,17,57,13.70
2017,04,27,17,58,13.60
2017,04,27,17,59,13.60
2017,04,27,18,00,13.50
2017,04,27,18,01,13.50
2017,04,27,18,02,13.40
2017,04,27,18,03,13.40
2017,04,27,18,04,13.30
2017,04,27,18,05,13.30
2017,04,27,18,06,13.30
2017,04,27,18,07,13.30
2017,04,27,18,08,13.30
2017,04,27,18,09,13.30
2017,04,27,18,10,13.30
2017,04,27,18,11,13.20
2017,04,27,18,12,13.20
2017,04,27,18,13,13.20
2017,04,27,18,14,13.20
2017,04,27,18,15,13.20
2017,04,27,18,16,13.20
2017,04,27,18,17,13.10
2017,04,27,18,18,13.10
2017,04,27,18,19,13.00
2017,04,27,18,20,13.00
2017,04,27,18,21,12.90
2017,04,27,18,22,12.90
2017,04,27,18,23,12.90
2017,04,27,18,24,12.90
2017,04,27,18,25,12.90
2017,04,27,18,26,12.80
2017,04,27,18,27,12.80
2017,04,27,18,28,12.80
2017,04,27,18,29,12.80
2017,04,27,18,30,12.80
2017,04,27,18,31,12.80
2017,04,27,18,32,12.80
2017,04,27,18,33,12.80
2017,04,27,18,34,12.80
2017,04,27,18,35,12.80
2017,04,27,18,36,12.80
2017,04,27,18,37,12.70
2017,04,27,18,38,12.70
2017,04,27,18,39,12.60
2017,04,27,18,40,12.50
2017,04,27,18,41,12.50
2017,04,27,18,42,12.40
2017,04,27,18,43,12.30
2017,04,27,18,44,12.30
2017,04,27,18,45,12.20
2017,04,27,18,46,12.20
2017,04,27,18,47,12.10
2017,04,27,18,48,12.10
2017,04,27,18,49,12.00
2017,04,27,18,50,11.90
2017,04,27,18,51,11.80
2017,04,27,18,52,11.80
2017,04,27,18,53,11.70
2017,04,27,18,54,11.70
2017,04,27,18,55,11.70
2017,04,27,18,56,11.70
2017,04,27,18,57,11.70
2017,04,27,18,58,11.70
2017,04,27,18,59,11.70
2017,04,27,19,00,11.70
2017,04,27,19,01,11.60
2017,04,27,19,02,11.50
2017,04,27,19,03,11.50
2017,04,27,19,04,11.40
2017,04,27,19,05,11.40
2017,04,27,19,06,11.40
2017,04,27,19,07,11.30
2017,04,27,19,08,11.30
2017,04,27,19,09,11.30
2017,04,27,19,10,11.30
2017,04,27,19,11,11.20
2017,04,27,19,12,11.20
2017,04,27,19,13,11.20
2017,04,27,19,14,11.20
2017,04,27,19,15,11.10
2017,04,27,19,16,11.10
2017,04,27,19,17,11.10
2017,04,27,19,18,11.10
2017,04,27,19,19,11.00
2017,04,27,19,20,11.00
2017,04,27,19,21,11.00
2017,04,27,19,22,10.90
2017,04,27,19,23,10.90
2017,04,27,19,24,10.90
2017,04,27,19,25,10.80
2017,04,27,19,26,10.80
2017,04,27,19,27,10.80
2017,04,27,19,28,10.80
2017,04,27,19,29,10.70
2017,04,27,19,30,10.70
2017,04,27,19,31,10.70
2017,04,27,19,32,10.70
2017,04,27,19,33,10.70
2017,04,27,19,34,10.70
2017,04,27,19,35,10.60
2017,04,27,19,36,10.60
2017,04,27,19,37,10.60
2017,04,27,19,38,10.60
2017,04,27,19,39,10.50
2017,04,27,19,40,10.50
2017,04,27,19,41,10.50
2017,04,27,19,42,10.40
2017,04,27,19,43,10.40
2017,04,27,19,44,10.40
2017,04,27,19,45,10.40
2017,04,27,19,46,10.30
2017,04,27,19,47,10.30
2017,04,27,19,48,10.30
2017,04,27,19,49,10.30
2017,04,27,19,50,10.20
2017,04,27,19,51,10.20
2017,04,27,19,52,10.20
2017,04,27,19,53,10.20
2017,04,27,19,54,10.10
2017,04,27,19,55,10.10
2017,04,27,19,56,10.10
2017,04,27,19,57,10.10
2017,04,27,19,58,10.10
2017,04,27,19,59,10.10
2017,04,27,20,00,10.10
2017,04,27,20,01,10.00
2017,04,27,20,02,10.00
2017,04,27,20,03,10.00
2017,04,27,20,04,9.90
2017,04,27,20,05,9.90
2017,04,27,20,06,9.90
2017,04,27,20,07,9.90
2017,04,27,20,08,9.80
2017,04,27,20,09,9.80
2017,04,27,20,10,9.80
2017,04,27,20,11,9.80
2017,04,27,20,12,9.80
2017,04,27,20,13,9.80
2017,04,27,20,14,9.70
2017,04,27,20,15,9.70
2017,04,27,20,16,9.70
2017,04,27,20,17,9.70
2017,04,27,20,18,9.70
2017,04,27,20,19,9.70
2017,04,27,20,20,9.60
2017,04,27,20,21,9.60
2017,04,27,20,22,9.60
2017,04,27,20,23,9.60
2017,04,27,20,24,9.60
2017,04,27,20,25,9.60
2017,04,27,20,26,9.60
2017,04,27,20,27,9.60
2017,04,27,20,28,9.50
2017,04,27,20,29,9.50
2017,04,27,20,30,9.50
2017,04,27,20,31,9.50
2017,04,27,20,32,9.40
2017,04,27,20,33,9.40
2017,04,27,20,34,9.40
2017,04,27,20,35,9.40
2017,04,27,20,36,9.40
2017,04,27,20,37,9.30
2017,04,27,20,38,9.30
2017,04,27,20,39,9.30
2017,04,27,20,40,9.30
2017,04,27,20,41,9.30
2017,04,27,20,42,9.20
2017,04,27,20,43,9.20
2017,04,27,20,44,9.20
2017,04,27,20,45,9.20
2017,04,27,20,46,9.20
2017,04,27,20,47,9.20
2017,04,27,20,48,9.10
2017,04,27,20,49,9.10
2017,04,27,20,50,9.10
2017,04,27,20,51,9.10
2017,04,27,20,52,9.10
2017,04,27,20,53,9.10
2017,04,27,20,54,9.10
2017,04,27,20,55,9.10
2017,04,27,20,56,9.10
2017,04,27,20,57,9.10
2017,04,27,20,58,9.10
2017,04,27,20,59,9.10
2017,04,27,21,00,9.10
2017,04,27,21,01,9.10
2017,04,27,21,02,9.10
2017,04,27,21,03,9.00
2017,04,27,21,04,9.00
2017,04,27,21,05,9.00
2017,04,27,21,06,9.00
2017,04,27,21,07,9.00
2017,04,27,21,08,8.90
2017,04,27,21,09,8.90
2017,04,27,21,10,8.90
2017,04,27,21,11,8.90
2017,04,27,21,12,8.90
2017,04,27,21,13,8.80
2017,04,27,21,14,8.80
2017,04,27,21,15,8.80
2017,04,27,21,16,8.80
2017,04,27,21,17,8.80
2017,04,27,21,18,8.80
2017,04,27,21,19,8.80
2017,04,27,21,20,8.80
2017,04,27,21,21,8.80
2017,04,27,21,22,8.80
2017,04,27,21,23,8.70
2017,04,27,21,24,8.70
2017,04,27,21,25,8.70
2017,04,27,21,26,8.70
2017,04,27,21,27,8.70
2017,04,27,21,28,8.60
2017,04,27,21,29,8.60
2017,04,27,21,30,8.60
2017,04,27,21,31,8.60
2017,04,27,21,32,8.60
2017,04,27,21,33,8.60
2017,04,27,21,34,8.60
2017,04,27,21,35,8.60
2017,04,27,21,36,8.50
2017,04,27,21,37,8.50
2017,04,27,21,38,8.50
2017,04,27,21,39,8.50
2017,04,27,21,40,8.50
2017,04,27,21,41,8.40
2017,04,27,21,42,8.40
2017,04,27,21,43,8.40
2017,04,27,21,44,8.40
2017,04,27,21,45,8.40
2017,04,27,21,46,8.40
2017,04,27,21,47,8.40
2017,04,27,21,48,8.40
2017,04,27,21,49,8.40
2017,04,27,21,50,8.40
2017,04,27,21,51,8.40
2017,04,27,21,52,8.40
2017,04,27,21,53,8.40
2017,04,27,21,54,8.40
2017,04,27,21,55,8.30
2017,04,27,21,56,8.30
2017,04,27,21,57,8.30
2017,04,27,21,58,8.30
2017,04,27,21,59,8.30
2017,04,27,22,00,8.30
2017,04,27,22,01,8.30
2017,04,27,22,02,8.30
2017,04,27,22,03,8.30
2017,04,27,22,04,8.20
2017,04,27,22,05,8.20
2017,04,27,22,06,8.20
2017,04,27,22,07,8.20
2017,04,27,22,08,8.20
2017,04,27,22,09,8.20
2017,04,27,22,10,8.30
2017,04,27,22,11,8.30
2017,04,27,22,12,8.20
2017,04,27,22,13,8.30
2017,04,27,22,14,8.20
2017,04,27,22,15,8.20
2017,04,27,22,16,8.20
2017,04,27,22,17,8.20
2017,04,27,22,18,8.20
2017,04,27,22,19,8.20
2017,04,27,22,20,8.20
2017,04,27,22,21,8.20
2017,04,27,22,22,8.20
2017,04,27,22,23,8.20
2017,04,27,22,24,8.20
2017,04,27,22,25,8.20
2017,04,27,22,26,8.20
2017,04,27,22,27,8.20
2017,04,27,22,28,8.20
2017,04,27,22,29,8.20
2017,04,27,22,30,8.20
2017,04,27,22,31,8.20
2017,04,27,22,32,8.20
2017,04,27,22,33,8.20
2017,04,27,22,34,8.20
2017,04,27,22,35,8.20
2017,04,27,22,36,8.20
2017,04,27,22,37,8.20
2017,04,27,22,38,8.20
2017,04,27,22,39,8.20
2017,04,27,22,40,8.20
2017,04,27,22,41,8.20
2017,04,27,22,42,8.20
2017,04,27,22,43,8.20
2017,04,27,22,44,8.20
2017,04,27,22,45,8.20
2017,04,27,22,46,8.10
2017,04,27,22,47,8.10
2017,04,27,22,48,8.10
2017,04,27,22,49,8.10
2017,04,27,22,50,8.10
2017,04,27,22,51,8.10
2017,04,27,22,52,8.10
2017,04,27,22,53,8.10
2017,04,27,22,54,8.10
2017,04,27,22,55,8.10
2017,04,27,22,56,8.10
2017,04,27,22,57,8.10
2017,04,27,22,58,8.10
2017,04,27,22,59,8.10
2017,04,27,23,00,8.10
2017,04,27,23,01,8.10
2017,04,27,23,02,8.10
2017,04,27,23,03,8.10
2017,04,27,23,04,8.10
2017,04,27,23,05,8.10
2017,04,27,23,06,8.10
2017,04,27,23,07,8.10
2017,04,27,23,08,8.10
2017,04,27,23,09,8.10
2017,04,27,23,10,8.00
2017,04,27,23,11,8.00
2017,04,27,23,12,8.00
2017,04,27,23,13,8.00
2017,04,27,23,14,8.00
2017,04,27,23,15,8.00
2017,04,27,23,16,8.00
2017,04,27,23,17,8.00
2017,04,27,23,18,7.90
2017,04,27,23,19,7.90
2017,04,27,23,20,7.90
2017,04,27,23,21,7.90
2017,04,27,23,22,7.90
2017,04,27,23,23,7.90
2017,04,27,23,24,7.90
2017,04,27,23,25,7.80
2017,04,27,23,26,7.80
2017,04,27,23,27,7.80
2017,04,27,23,28,7.80
2017,04,27,23,29,7.80
2017,04,27,23,30,7.80
2017,04,27,23,31,7.80
2017,04,27,23,32,7.80
2017,04,27,23,33,7.90
2017,04,27,23,34,7.80
2017,04,27,23,35,7.90
2017,04,27,23,36,7.80
2017,04,27,23,37,7.80
2017,04,27,23,38,7.80
2017,04,27,23,39,7.90
2017,04,27,23,40,7.90
2017,04,27,23,41,7.90
2017,04,27,23,42,7.90
2017,04,27,23,43,7.90
2017,04,27,23,44,7.80
2017,04,27,23,45,7.80
2017,04,27,23,46,7.80
2017,04,27,23,47,7.80
2017,04,27,23,48,7.80
2017,04,27,23,49,7.80
2017,04,27,23,50,7.80
2017,04,27,23,51,7.80
2017,04,27,23,52,7.80
2017,04,27,23,53,7.80
2017,04,27,23,54,7.80
2017,04,27,23,55,7.80
2017,04,27,23,56,7.80
2017,04,27,23,57,7.70
2017,04,27,23,58,7.70
2017,04,27,23,59,7.70
